Dauntless Aviation
Airports Europe Germany
EDSW

Altdorf-Wallburg

Altdorf-Wallburg, GERMANY

Airport Info
Suggest Updated Information for this Airport

Location

Latitude / Longitude: 48°16'11"N / 7°50'31"E
  48°16.188'N / 7°50.532'E
  48.2698 / 7.8422
Satellite photo at:
Airport distance calculator
From:
Weather Reports

METAR

LFST
18.2nm NW
LFST 230600Z AUTO 09004KT 060V120 9000 NSC 06/05 Q1013 TEMPO 1500 BCFG
LFGA
22.2nm SW
LFGA 230600Z AUTO 20006KT CAVOK 06/03 Q1012
EDSB
32.3nm N
EDSB 230550Z VRB01KT 6000 MIFG NSC 05/05 Q1013

TAF

LFST
18.2nm NW
TAF LFST 230500Z 2306/2406 13005KT CAVOK PROB30 TEMPO 2306/2308 1500 BCFG BECMG 2309/2312 02010KT TEMPO 2400/2406 4000 BR BKN008
EDSB
32.3nm N
TAF EDSB 230500Z 2306/2406 04005KT CAVOK BECMG 2310/2312 03011KT
Safelog

 

Dauntless Aviation

© 2007-2017 Dauntless Aviation, all rights reserved
Information provided via PilotNav comes from a variety of official and unofficial data sources. As errors are possible, do not use PilotNav for primary flight planning purposes. Verify any information that you receive via PilotNav with current and canonical charts and other official documents. The material in this database is subject to database copyrights held by Dauntless Aviation and may not be copied without the express permission of Dauntless Aviation - licenses for use of part of all of this data are available for purchase; enquire via the Dauntless Aviation helpdesk. A number of mechanisms and markers exist in the database to protect against and identify infringement / copyright. Automated queries against this website are stictly prohibited, and all activity is logged and analyzed.